This is the latest recevied weather packets stored in our database for station/object W7TJC. If no packets are shown the sender has not sent any weather packets the latest 10 day(s).
| Time | Temp. | Humidity | Pressure | Rain* | Wind** | Luminosity | Snow |
|---|---|---|---|---|---|---|---|
| 1777802207 | 11.67° C | 80% | 1015.3 hPa | 0 mm | - | 0 W/m² | - |
| 1777801906 | 12.22° C | 80% | 1015.4 hPa | 0 mm | - | 0 W/m² | - |
| 1777801602 | 12.78° C | 76% | 1015.5 hPa | 0 mm | - | 0 W/m² | - |
| 1777801299 | 12.22° C | 77% | 1015.7 hPa | 0 mm | - | 0 W/m² | - |
| 1777800995 | 11.67° C | 80% | 1015.7 hPa | 0 mm | - | 0 W/m² | - |
| 1777800693 | 11.67° C | 81% | 1015.7 hPa | 0 mm | - | 0 W/m² | - |
| 1777800388 | 11.67° C | 81% | 1015.4 hPa | 0 mm | - | 0 W/m² | - |
| 1777800085 | 11.67° C | 79% | 1015.7 hPa | 0 mm | - | 0 W/m² | - |
| 1777799780 | 12.22° C | 79% | 1015.7 hPa | 0 mm | - | 0 W/m² | - |
| 1777799478 | 12.22° C | 80% | 1015.7 hPa | 0 mm | - | 0 W/m² | - |
| 1777799173 | 12.22° C | 81% | 1015.7 hPa | 0 mm | - | 0 W/m² | - |
| 1777798869 | 12.22° C | 81% | 1015.8 hPa | 0 mm | - | 0 W/m² | - |
| 1777798565 | 12.22° C | 79% | 1015.8 hPa | 0 mm | - | 0 W/m² | - |
| 1777798263 | 12.78° C | 77% | 1016.1 hPa | 0 mm | - | 0 W/m² | - |
| 1777797959 | 12.78° C | 77% | 1015.7 hPa | 0 mm | - | 0 W/m² | - |
| 1777797657 | 12.78° C | 76% | 1015.9 hPa | 0 mm | - | 0 W/m² | - |
| 1777797354 | 12.78° C | 77% | 1015.9 hPa | 0 mm | - | 0 W/m² | - |
| 1777797051 | 13.33° C | 75% | 1015.9 hPa | 0 mm | - | 0 W/m² | - |
| 1777796748 | 13.33° C | 74% | 1015.5 hPa | 0 mm | - | 0 W/m² | - |
| 1777796445 | 12.78° C | 75% | 1015.8 hPa | 0 mm | - | 0 W/m² | - |
| 1777796145 | 12.78° C | 76% | 1015.8 hPa | 0 mm | - | 0 W/m² | - |
| 1777795842 | 12.78° C | 76% | 1015.9 hPa | 0 mm | - | 0 W/m² | - |
| 1777795538 | 13.33° C | 77% | 1015.7 hPa | 0 mm | - | 0 W/m² | - |
| 1777795235 | 13.33° C | 75% | 1015.7 hPa | 0 mm | - | 0 W/m² | - |
| 1777794932 | 13.33° C | 74% | 1015.7 hPa | 0 mm | - | 0 W/m² | - |
* Rain latest hour (hover to see other rain measurements)
** Current wind speed in m/s (hover to see current wind gust speed)